Regional Weather Roundup
Issued by NWS

Home | Current Version | Previous Version | Graphics & Text | Print | Product List | Glossary On
Versions: 1 2 3 4 5 6 7 8 9 10 11 12 13 14 15 16 17 18 19 20 21 22 23 24 25 26 27 28 29 30 31 32 33 34 35 36 37 38 39 40 41 42 43 44 45 46 47 48 49 50
000
ASUS45 KPSR 061710
RWRAZ

ARIZONA REGIONAL HOURLY WEATHER ROUNDUP
NATIONAL WEATHER SERVICE PHOENIX AZ
1000 AM MST WED MAY 06 2015

NOTE: FAIR INDICATES FEW OR NO CLOUDS BELOW 12,000 FEET WITH NO
SIGNIFICANT WEATHER AND/OR OBSTRUCTIONS TO VISIBILITY.

AZZ001>003-036-061800-
NORTHWEST ARIZONA

CITY           SKY/WX    TMP DP  RH WIND       PRES   REMARKS
BULLHEAD CITY  MOSUNNY   79  43  27 S16G22    29.75S
KINGMAN        MOSUNNY   72  36  26 SW16G23   29.84S
$$

AZZ004>008-015-016-018-061800-
NORTH CENTRAL ARIZONA

CITY           SKY/WX    TMP DP  RH WIND       PRES   REMARKS
GRAND CANYON   PTSUNNY   56  35  45 SW13      29.97S
WILLIAMS       MOSUNNY   54  30  40 S15G22    30.04S
PRESCOTT       MOSUNNY   62  34  35 VRB6      29.93F
FLAGSTAFF      PTSUNNY   50  33  52 SW16      29.99S
PAYSON         PTSUNNY   63  41  45 S9        29.97S
PAGE           MOSUNNY   64  45  49 E3        29.86F
$$

AZZ009>014-017-061800-
NORTHEAST ARIZONA

CITY           SKY/WX    TMP DP  RH WIND       PRES   REMARKS
WINSLOW        MOSUNNY   68  37  32 S10G16    29.91F
SAINT JOHNS    PTSUNNY   62  43  49 N8        29.95F
WINDOW ROCK    PTSUNNY   57  41  55 SW12      29.99F
SHOW LOW       PTSUNNY   55  37  50 SW17      30.01S
$$

AZZ023-061800-
GREATER PHOENIX AREA

CITY           SKY/WX    TMP DP  RH WIND       PRES   REMARKS
PHOENIX        MOSUNNY   80  43  26 S8        29.79F
GLENDALE       MOSUNNY   79  43  27 E5        29.81F
LUKE AFB       MOSUNNY   80  44  27 S2        29.79F
DEER VALLEY    MOSUNNY   74  43  32 VRB6      29.81S
SCOTTSDALE     MOSUNNY   77  43  29 E7        29.83S
MESA-FALCON    PTSUNNY   75  41  29 S9        29.82S
MESA-GATEWAY   MOSUNNY   77  43  29 S7        29.84S
CHANDLER       PTSUNNY   77  43  29 VRB6      29.82S
$$

AZZ027-028-061800-
SOUTHWEST MARICOPA COUNTY AND PINAL COUNTY

CITY           SKY/WX    TMP DP  RH WIND       PRES   REMARKS
CASA GRANDE    MOSUNNY   75  41  29 CALM      29.81F
GILA BEND      SUNNY     80  40  24 VRB6      29.78F
$$

AZZ503-504-507>509-061800-
SOUTHEAST ARIZONA

CITY           SKY/WX    TMP DP  RH WIND       PRES   REMARKS
TUCSON         SUNNY     76  34  21 MISG      29.88F
DAVIS-MONTHAN  MOSUNNY   76  31  19 S8        29.86F
RYAN FIELD       N/A     75  37  25 SE6       29.87F
NOGALES        SUNNY     74  15  10 S17G25    29.93S
SIERRA VISTA   SUNNY     71  13  11 SW17      29.96F
DOUGLAS        SUNNY     72  31  22 S8        29.95F
SAFFORD        PTSUNNY   72  44  36 E6        29.88F
$$

AZZ020-021-025-026-031-061800-
SOUTHWEST ARIZONA

CITY           SKY/WX    TMP DP  RH WIND       PRES   REMARKS
YUMA           MOSUNNY   76  52  43 S13       29.78F
$$

CAZ031-033-041-043-047-048-061-061800-
SOUTHERN CALIFORNIA

CITY           SKY/WX    TMP DP  RH WIND       PRES   REMARKS
DOWNTOWN L.A.  CLOUDY    64  50  60 CALM      29.90S
L.A. AIRPORT   CLOUDY    61  51  70 SW6       29.91S
SAN DIEGO      CLOUDY    62  49  62 SW6       29.93S
BURBANK        CLOUDY    60  46  59 SE8       29.90S
ONTARIO        CLOUDY    59  46  62 NW7       29.91S
RIVERSIDE      CLOUDY    61  48  62 NW5       29.91S
PALM SPRINGS   SUNNY     73  41  31 NW14      29.78S
EL CENTRO NAS  MOSUNNY   75  36  24 W10G20    29.79S
IMPERIAL       SUNNY     75  40  28 W15       29.77S
BLYTHE         SUNNY     76  45  33 S17       29.77S
NEEDLES        MOSUNNY   82  42  24 S12       29.75S
$$

NVZ020-UTZ003-061800-
SOUTHERN NEVADA-UTAH

CITY           SKY/WX    TMP DP  RH WIND       PRES   REMARKS
LAS VEGAS      PTSUNNY   74  38  27 S9        29.72F
SALT LAKE CITY PTSUNNY   62  46  55 SE10      29.78F
$$

NMZ009-TXZ055-061800-
NEW MEXICO-WEST TEXAS

CITY           SKY/WX    TMP DP  RH WIND       PRES   REMARKS
ALBUQUERQUE    PTSUNNY   63  44  50 SW10      29.95F
EL PASO        MOSUNNY   76  34  21 W9        29.94F
$$


........................KEY........................
SKY/WX - SKY CONDITION/WEATHER
TMP    - TEMPERATURE IN FAHRENHEIT
DP     - DEW POINT IN FAHRENHEIT
RH     - RELATIVE HUMIDITY IN PERCENT
WIND   - DIRECTION AND SPEED IN MILES PER HOUR (MPH)
VRB    - VARIABLE WIND DIRECTION
PRES   - MEAN SEA LEVEL PRESSURE IN INCHES OF MERCURY
         F - FALLING PRESSURE   R - RISING PRESSURE
         S - STEADY PRESSURE
VSB    - VISIBILITY IN MILES
HX     - HEAT INDEX IN FAHRENHEIT
WCI    - WIND CHILL INDEX IN FAHRENHEIT
TC     - TEMPERATURE IN CELSIUS WHICH IS ALSO KNOWN AS
         TEMPERATURE IN CENTIGRADE
AFB    - AIR FORCE BASE
         LUKE AFB IS LUKE AIR FORCE BASE
         DAVIS-MONTHAN IS DAVIS-MONTHAN AIR FORCE BASE
NAS    - NAVAL AIR STATION
         EL CENTRO NAS IS EL CENTRO NAVAL AIR STATION
N/A    - NOT AVAILABLE




USA.gov is the U.S. government's official web portal to all federal, state and local government web resources and services.